Погода в Сент-Огастине

США     29°52′02″N   81°17′09″W
темп.,
°C
ветер,
м/с
пор.,
м/с
влажн.,
%
обл.,
%
осадки,
мм/ч
давл.,
гПа
погр.,
м
23 января, сб
сб2301:00+17зюз379096 0.0 1016231
04:00+17зюз2492100 0.0 1015157
07:00+17с359598 0.2 1017211
10:00+16ссв578999 0.3 1019434
13:00+17ссв577698 0.3 1019550
16:00+17ссв588170 0.0 1019581
19:00+16св698682 0.1 1020583
22:00+17всв5987100 0.2 1021574
24 января, вс
вс2401:00+17в5990100 0.8 1020532
04:00+17в4894100 1.8 1019406
07:00+17всв4894100 2.1 1020348
10:00+17всв4893100 0.3 1021341
13:00+18в488895 0.6 1020354
16:00+19в478882 0.2 1018324
19:00+18в369269 0.3 1019191
22:00+18в359555 0.1 1019122
25 января, пн
пн2501:00+17юв129547 0.1 101723
04:00+17юз1296100 0.0 101723
07:00+17юз2395100 0.0 101631
10:00+20ююз3579100 0.0 1016211
13:00+24ююз475996 0.0 1014742
16:00+25юз58550 0.0 1013896
19:00+21зюз510700 0.0 1014347
22:00+19зюз511840 0.0 1015445
26 января, вт
вт2601:00+19ююз410881 0.0 1014285
04:00+19юз49881 0.0 1013286
07:00+19юз511901 0.0 1014349
10:00+22зюз59750 0.0 1016449
13:00+24з597029 0.0 1015688
16:00+25зюз476866 0.1 1014709
19:00+21юз358336 0.1 1016121
22:00+20зюз368866 0.0 1017139
27 января, ср
ср2701:00+19зсз129283 0.0 101747
04:00+18з12965 0.0 101723
07:00+18ююз119619 0.0 101723
10:00+22ю247945 0.0 1018295
13:00+25ю476223 0.0 1016804
16:00+26юз595216 0.0 10141023
19:00+22зюз6136515 0.0 1014546
22:00+21зюз6137799 0.0 1014585